[[{"header":{"parameterUnit":"m.s-1","parameterCategory":2,"la1":30.2992,"la2":30.254,"lo1":-89.0895,"lo2":-89.0443,"dy":0.0025,"dx":0.0025,"nx":19,"ny":19,"refTime":"2026-03-25T03:00:00:Z","depth":"0","parameterNumber":2,"parameterNumberName":"U-component_of_CURRENTS"},"data":[0,0,0,-0.0604,-0.0606,-0.0709,-0.0709,-0.0825,-0.0826,0,0,0,0,0,0,0,0,0,0,0,-0.0562,-0.0563,-0.0604,-0.0606,-0.0709,-0.0709,-0.0825,-0.0826,0,0,0,0,0,0,0,0,0,0,0,-0.0562,-0.0563,-0.0563,-0.0607,-0.0708,-0.0709,-0.0825,-0.0752,0,0,0,0,0,0,0,0,0,0,-0.0655,-0.0624,-0.0563,-0.0563,-0.0607,-0.0708,-0.0709,-0.0749,-0.0757,-0.0773,0,-0.0784,0,-0.0809,-0.0833,-0.0834,0,0,0,-0.0611,-0.0618,-0.0639,-0.0563,-0.0608,-0.0708,-0.0664,-0.0754,-0.0762,-0.0783,-0.0786,-0.0791,-0.0811,-0.0834,-0.0834,-0.0858,-0.0858,0,0,-0.0605,-0.059,-0.0633,-0.0644,-0.0628,-0.066,-0.0667,-0.0759,-0.0769,-0.0786,-0.0794,-0.0813,-0.0835,-0.0835,-0.0859,-0.0858,0,0,0,-0.0586,-0.0586,-0.0606,-0.0639,-0.0659,-0.0663,-0.0671,-0.0765,-0.077,-0.0795,-0.0814,-0.0835,-0.0837,-0.0859,-0.0858,-0.0939,0,0,0,-0.0583,-0.0575,-0.0603,-0.0597,-0.0657,-0.0718,-0.0675,-0.0763,-0.0775,-0.0814,-0.0835,-0.0838,-0.086,-0.0859,-0.0938,-0.0988,0,0,0,-0.0559,-0.0573,-0.0581,-0.0595,-0.0638,-0.0717,-0.0728,-0.0766,-0.0786,-0.0834,-0.0838,-0.086,-0.0859,-0.0937,-0.0985,-0.1063,0,0,0,-0.0546,-0.0569,-0.0581,-0.062,-0.0637,-0.0715,-0.0727,-0.0793,-0.0835,-0.0836,-0.086,-0.0858,-0.0937,-0.0984,-0.106,-0.1192,-0.1215,0,0,-0.0568,-0.0572,-0.0596,-0.0609,-0.0687,-0.0701,-0.0783,-0.0838,-0.0813,-0.0831,-0.0832,-0.0938,-0.0985,-0.1062,-0.1119,-0.1145,0,0,0,-0.0599,-0.062,-0.0645,-0.0694,-0.0742,-0.0809,-0.0851,-0.085,-0.0862,-0.083,-0.089,-0.0916,-0.0964,-0.1035,-0.1054,-0.1044,-0.0853,-0.0853,-0.0853,-0.0632,-0.0659,-0.0716,-0.0764,-0.0818,-0.0886,-0.0923,-0.0917,-0.09,-0.0886,-0.0945,-0.1009,-0.1081,-0.1098,-0.1084,-0.0894,-0.0894,-0.0895,-0.0895,-0.0687,-0.072,-0.0772,-0.0832,-0.0895,-0.0962,-0.1006,-0.0997,-0.1029,-0.0962,-0.1005,-0.1069,-0.1125,-0.1101,-0.0899,-0.0898,-0.0898,-0.0898,-0.0897,-0.0708,-0.0724,-0.0763,-0.0853,-0.0946,-0.1014,-0.1112,-0.1115,-0.1101,-0.1141,-0.1234,-0.1234,-0.1251,-0.1174,-0.1175,-0.1175,-0.1176,-0.1176,-0.1177,-0.0703,-0.0744,-0.0794,-0.0883,-0.0946,-0.1053,-0.1173,-0.1234,-0.1332,-0.1336,-0.1337,-0.1265,-0.1094,-0.1126,-0.1185,-0.1183,-0.1182,-0.1182,-0.1181,-0.072,-0.0734,-0.0801,-0.0858,-0.101,-0.1137,-0.1258,-0.1475,-0.1545,-0.1621,-0.155,-0.1443,-0.1442,-0.1426,-0.1464,-0.1607,-0.1607,-0.1607,-0.1607,-0.0723,-0.0738,-0.0824,-0.0914,-0.105,-0.1182,-0.1417,-0.1599,-0.1722,-0.1751,-0.1716,-0.1665,-0.1648,-0.1653,-0.1631,-0.167,-0.1861,-0.1861,-0.1862,-0.0743,-0.0761,-0.0823,-0.0914,-0.1073,-0.124,-0.1454,-0.1671,-0.1829,-0.1863,-0.1677,-0.1666,-0.1572,-0.1547,-0.1532,-0.1503,-0.1557,0,0]},{"header":{"parameterUnit":"m.s-1","parameterCategory":2,"la1":30.2992,"la2":30.254,"lo1":-89.0895,"lo2":-89.0443,"dy":0.0025,"dx":0.0025,"nx":19,"ny":19,"refTime":"2026-03-25T03:00:00:Z","depth":"0","parameterNumber":3,"parameterNumberName":"V-component_of_CURRENTS"},"data":[0,0,0,-0.0593,-0.059,-0.0439,-0.0438,-0.0146,-0.0143,0,0,0,0,0,0,0,0,0,0,0,-0.0646,-0.0645,-0.0593,-0.059,-0.0439,-0.0438,-0.0146,-0.0143,0,0,0,0,0,0,0,0,0,0,0,-0.0646,-0.0645,-0.0645,-0.059,-0.0439,-0.0438,-0.0147,-0.028,0,0,0,0,0,0,0,0,0,0,-0.0437,-0.0512,-0.0646,-0.0645,-0.0589,-0.044,-0.0438,-0.0287,-0.0271,-0.0193,0,-0.0187,0,-0.0165,-0.0123,-0.0122,0,0,0,-0.0566,-0.0525,-0.0485,-0.0645,-0.0588,-0.044,-0.05,-0.0279,-0.0261,-0.0172,-0.0183,-0.0172,-0.016,-0.0122,-0.012,0.0249,0.0251,0,0,-0.0575,-0.0607,-0.0498,-0.0475,-0.0567,-0.0506,-0.0496,-0.0269,-0.0255,-0.0182,-0.0166,-0.0155,-0.012,-0.0117,0.0247,0.0249,0,0,0,-0.0615,-0.0613,-0.058,-0.0486,-0.047,-0.0502,-0.0491,-0.0265,-0.0255,-0.0163,-0.0152,-0.0118,-0.0114,0.0245,0.0248,0.0234,0,0,0,-0.0619,-0.0638,-0.0584,-0.06,-0.0476,-0.038,-0.0493,-0.0271,-0.0245,-0.0153,-0.0118,-0.0112,0.0243,0.0247,0.023,0.0191,0,0,0,-0.0649,-0.0641,-0.0631,-0.0603,-0.0548,-0.0384,-0.036,-0.0265,-0.0238,-0.0122,-0.0111,0.0242,0.0246,0.0227,0.0187,0.0219,0,0,0,-0.0677,-0.0675,-0.0632,-0.0612,-0.055,-0.0417,-0.0361,-0.0253,-0.0159,-0.0116,0.0243,0.0248,0.0225,0.0185,0.0217,0.0116,0.0119,0,0,-0.0693,-0.0678,-0.0664,-0.0622,-0.0529,-0.0435,-0.0264,-0.0135,-0.0052,0.0175,0.0183,0.0232,0.0187,0.0219,0.037,0.0364,0,0,0,-0.068,-0.0668,-0.0631,-0.0568,-0.0459,-0.0298,-0.0161,-0.0047,0.0158,0.0021,0.0326,0.0299,0.0318,0.0256,0.0255,0.036,0.0268,0.0268,0.0267,-0.0724,-0.0667,-0.0611,-0.0506,-0.04,-0.0177,-0.0029,0.0172,0.0228,0.0341,0.0359,0.0467,0.0408,0.0403,0.0517,0.046,0.046,0.046,0.046,-0.0724,-0.068,-0.0581,-0.0511,-0.0327,-0.0164,0.0142,0.0231,0.0459,0.0481,0.05,0.0334,0.0398,0.0521,0.046,0.046,0.046,0.046,0.046,-0.0736,-0.0702,-0.0666,-0.054,-0.0372,-0.0155,0.0048,0.0259,0.0423,0.0477,0.0417,0.0415,0.0456,0.0482,0.0482,0.0482,0.0482,0.0482,0.0482,-0.0757,-0.0712,-0.0674,-0.0555,-0.0477,-0.0302,-0.0003,0.0126,0.0295,0.0396,0.0396,0.0533,0.0474,0.0396,0.0483,0.0482,0.0482,0.0482,0.0482,-0.0743,-0.0745,-0.0694,-0.0643,-0.0481,-0.0396,-0.0166,0.0016,0.0173,0.0208,0.0464,0.0378,0.0365,0.0367,0.0291,0.0345,0.0345,0.0345,0.0345,-0.0743,-0.0738,-0.0682,-0.0622,-0.0513,-0.0413,-0.0372,-0.0226,0.0129,0.0313,0.0473,0.0468,0.0468,0.0463,0.0463,0.0391,0.047,0.047,0.0471,-0.0719,-0.0714,-0.0674,-0.0631,-0.0526,-0.047,-0.053,-0.0494,0.0078,0.0494,0.0651,0.0646,0.0659,0.0651,0.0656,0.0648,0.0533,0,0]}],[{"header":{"parameterUnit":"m.s-1","parameterCategory":2,"la1":30.2992,"la2":30.254,"lo1":-89.0895,"lo2":-89.0443,"dy":0.0025,"dx":0.0025,"nx":19,"ny":19,"refTime":"2026-03-25T03:00:00:Z","depth":"2","parameterNumber":2,"parameterNumberName":"U-component_of_CURRENTS"},"data":[0,0,0,-0.0842,-0.0842,-0.0808,-0.0808,-0.0715,-0.0714,0,0,0,0,0,0,0,0,0,0,0,-0.0841,-0.084,-0.0842,-0.0842,-0.0808,-0.0808,-0.0715,-0.0714,0,0,0,0,0,0,0,0,0,0,0,-0.0841,-0.0841,-0.084,-0.0842,-0.0808,-0.0808,-0.0715,-0.075,0,0,0,0,0,0,0,0,0,0,-0.0787,-0.0788,-0.0841,-0.084,-0.0842,-0.0809,-0.0808,-0.0752,-0.0747,-0.072,0,-0.0715,0,-0.0723,-0.0708,-0.0708,0,0,0,-0.0828,-0.0792,-0.0797,-0.084,-0.0842,-0.0809,-0.082,-0.075,-0.0745,-0.0715,-0.0714,-0.0711,-0.0722,-0.0707,-0.0707,-0.0608,-0.0607,0,0,-0.083,-0.0819,-0.0801,-0.0794,-0.0832,-0.0821,-0.0819,-0.0747,-0.0732,-0.0714,-0.071,-0.072,-0.0707,-0.0706,-0.0608,-0.0607,0,0,0,-0.0845,-0.082,-0.0827,-0.0797,-0.0801,-0.082,-0.0818,-0.0734,-0.0741,-0.0709,-0.0719,-0.0706,-0.0705,-0.0608,-0.0608,-0.0659,0,0,0,-0.0845,-0.083,-0.0828,-0.0819,-0.0803,-0.0773,-0.0806,-0.0745,-0.0738,-0.0719,-0.0706,-0.0704,-0.0609,-0.0608,-0.0659,-0.0676,0,0,0,-0.0843,-0.083,-0.0829,-0.0819,-0.0814,-0.0775,-0.0776,-0.0744,-0.0745,-0.0708,-0.0704,-0.0609,-0.0608,-0.0658,-0.0675,-0.0707,0,0,0,-0.0828,-0.0841,-0.0828,-0.0842,-0.0815,-0.0817,-0.0776,-0.0757,-0.0729,-0.0706,-0.0609,-0.0608,-0.0658,-0.0674,-0.0706,-0.0924,-0.0946,0,0,-0.0847,-0.0842,-0.0855,-0.0845,-0.0856,-0.082,-0.0804,-0.0747,-0.07,-0.0627,-0.0625,-0.0659,-0.0675,-0.0707,-0.0867,-0.0892,0,0,0,-0.0865,-0.0863,-0.0869,-0.0864,-0.0863,-0.0834,-0.0783,-0.0744,-0.0672,-0.0681,-0.0624,-0.0631,-0.0652,-0.0779,-0.0797,-0.0603,-0.0603,-0.0603,-0.0603,-0.0847,-0.0862,-0.0868,-0.0872,-0.0866,-0.0827,-0.0795,-0.072,-0.0685,-0.0648,-0.0648,-0.0671,-0.0806,-0.0822,-0.0621,-0.0621,-0.0621,-0.0621,-0.0621,-0.0857,-0.0853,-0.0856,-0.0863,-0.0841,-0.0812,-0.0768,-0.0737,-0.0687,-0.0645,-0.0663,-0.0794,-0.0847,-0.0625,-0.0624,-0.0624,-0.0623,-0.0623,-0.0623,-0.0828,-0.0827,-0.0828,-0.0825,-0.0808,-0.0796,-0.08,-0.076,-0.072,-0.0731,-0.0878,-0.088,-0.0728,-0.0753,-0.0753,-0.0753,-0.0753,-0.0754,-0.0754,-0.0786,-0.0795,-0.078,-0.0789,-0.0781,-0.0791,-0.0813,-0.0846,-0.0935,-0.0941,-0.0943,-0.0715,-0.0711,-0.0733,-0.0757,-0.0756,-0.0756,-0.0756,-0.0755,-0.0742,-0.0739,-0.073,-0.0723,-0.0741,-0.0802,-0.0872,-0.1093,-0.1132,-0.1238,-0.1066,-0.1058,-0.1065,-0.1052,-0.1081,-0.1193,-0.1193,-0.1193,-0.1193,-0.0693,-0.0701,-0.0674,-0.0676,-0.0712,-0.0798,-0.1,-0.1148,-0.1262,-0.1249,-0.1244,-0.1252,-0.1237,-0.1249,-0.1231,-0.1262,-0.142,-0.142,-0.1419,-0.065,-0.0653,-0.0622,-0.0638,-0.0689,-0.0816,-0.1008,-0.116,-0.1313,-0.1409,-0.1084,-0.1247,-0.1252,-0.123,-0.124,-0.1215,-0.126,0,0]},{"header":{"parameterUnit":"m.s-1","parameterCategory":2,"la1":30.2992,"la2":30.254,"lo1":-89.0895,"lo2":-89.0443,"dy":0.0025,"dx":0.0025,"nx":19,"ny":19,"refTime":"2026-03-25T03:00:00:Z","depth":"2","parameterNumber":3,"parameterNumberName":"V-component_of_CURRENTS"},"data":[0,0,0,0.0002,0.0002,-0.0015,-0.0015,-0.0041,-0.0041,0,0,0,0,0,0,0,0,0,0,0,-0.0005,-0.0005,0.0002,0.0002,-0.0015,-0.0015,-0.0041,-0.0041,0,0,0,0,0,0,0,0,0,0,0,-0.0005,-0.0005,-0.0005,0.0002,-0.0015,-0.0015,-0.0041,-0.003,0,0,0,0,0,0,0,0,0,0,-0.0014,-0.0024,-0.0005,-0.0005,0.0002,-0.0015,-0.0015,-0.0029,-0.003,-0.0031,0,-0.0036,0,-0.0028,-0.0042,-0.0042,0,0,0,-0.001,-0.0024,-0.0015,-0.0006,0.0002,-0.0015,-0.001,-0.003,-0.0031,-0.0032,-0.0036,-0.0036,-0.0028,-0.0042,-0.0042,-0.0039,-0.0039,0,0,-0.0009,-0.002,-0.0014,-0.0016,-0.0005,-0.001,-0.0011,-0.0031,-0.0041,-0.0036,-0.0037,-0.0029,-0.0042,-0.0042,-0.0039,-0.0039,0,0,0,0.0002,-0.002,-0.0012,-0.0015,-0.0012,-0.001,-0.0011,-0.0041,-0.0034,-0.0037,-0.0029,-0.0042,-0.0042,-0.0039,-0.0039,-0.0057,0,0,0,0.0002,-0.0012,-0.0011,-0.002,-0.0011,-0.0027,-0.0021,-0.0034,-0.0035,-0.0029,-0.0042,-0.0042,-0.004,-0.0039,-0.0057,-0.0071,0,0,0,-0.0004,-0.0013,-0.0013,-0.002,-0.0019,-0.0026,-0.0022,-0.0034,-0.0029,-0.0042,-0.0042,-0.004,-0.0039,-0.0057,-0.007,-0.0029,0,0,0,-0.0018,-0.004,-0.0014,-0.0044,-0.0019,-0.0038,-0.0022,-0.0052,-0.0068,-0.0042,-0.004,-0.0039,-0.0057,-0.0069,-0.0029,-0.0127,-0.0133,0,0,-0.0053,-0.0045,-0.0063,-0.004,-0.0073,-0.0036,-0.0061,-0.0078,-0.0057,-0.0036,-0.0036,-0.0057,-0.007,-0.0029,-0.0112,-0.0119,0,0,0,-0.008,-0.0098,-0.0102,-0.0117,-0.0109,-0.0102,-0.0101,-0.007,-0.0051,-0.0061,-0.0047,-0.0054,-0.0027,-0.0087,-0.0092,-0.0038,-0.0038,-0.0038,-0.0038,-0.0139,-0.0141,-0.0183,-0.0185,-0.019,-0.0155,-0.0126,-0.008,-0.0074,-0.0052,-0.0061,-0.0033,-0.0099,-0.0103,-0.0048,-0.0048,-0.0048,-0.0048,-0.0048,-0.0212,-0.0247,-0.0247,-0.0293,-0.0264,-0.0274,-0.0169,-0.0129,-0.0044,-0.0049,-0.0022,-0.0095,-0.011,-0.005,-0.0049,-0.0049,-0.0049,-0.0049,-0.0049,-0.0264,-0.0284,-0.0313,-0.0371,-0.0384,-0.0343,-0.028,-0.0182,-0.0078,-0.0041,-0.0086,-0.0087,-0.0035,-0.003,-0.003,-0.003,-0.003,-0.003,-0.003,-0.0309,-0.0336,-0.0405,-0.045,-0.0484,-0.0464,-0.0337,-0.0251,-0.0158,-0.0112,-0.0112,-0.0026,-0.0027,-0.0032,-0.0028,-0.0028,-0.0028,-0.0029,-0.0029,-0.0393,-0.0399,-0.0494,-0.0545,-0.0596,-0.0594,-0.0468,-0.0344,-0.0229,-0.0201,-0.0128,-0.0126,-0.0122,-0.0119,-0.0126,-0.0145,-0.0145,-0.0145,-0.0145,-0.0442,-0.0455,-0.0579,-0.0656,-0.0682,-0.0653,-0.0614,-0.0496,-0.0333,-0.0264,-0.0259,-0.0303,-0.0297,-0.0303,-0.0296,-0.0306,-0.0373,-0.0373,-0.0373,-0.0505,-0.0531,-0.0627,-0.0699,-0.0736,-0.0712,-0.0732,-0.0646,-0.0431,-0.0378,-0.0256,-0.0169,-0.0222,-0.0216,-0.0215,-0.0208,-0.0221,0,0]}],[{"header":{"parameterUnit":"m.s-1","parameterCategory":2,"la1":30.2992,"la2":30.254,"lo1":-89.0895,"lo2":-89.0443,"dy":0.0025,"dx":0.0025,"nx":19,"ny":19,"refTime":"2026-03-25T03:00:00:Z","depth":"4","parameterNumber":2,"parameterNumberName":"U-component_of_CURRENTS"},"data":[0,0,0,-0.0954,-0.0956,-0.1033,-0.1034,-0.1091,-0.1091,0,0,0,0,0,0,0,0,0,0,0,-0.0931,-0.0932,-0.0954,-0.0957,-0.1033,-0.1034,-0.1091,-0.1091,0,0,0,0,0,0,0,0,0,0,0,-0.0931,-0.0932,-0.0933,-0.0957,-0.1033,-0.1034,-0.1091,-0.1041,0,0,0,0,0,0,0,0,0,0,-0.0971,-0.0957,-0.0932,-0.0933,-0.0957,-0.1033,-0.1034,-0.1039,-0.1044,-0.1046,0,-0.1069,0,-0.1083,-0.1095,-0.1095,0,0,0,-0.095,-0.0953,-0.0976,-0.0933,-0.0958,-0.1033,-0.0997,-0.1042,-0.1048,-0.1053,-0.107,-0.1073,-0.1084,-0.1095,-0.1095,-0.1201,-0.1201,0,0,-0.0946,-0.0941,-0.0972,-0.098,-0.0993,-0.0994,-0.0999,-0.1046,-0.1056,-0.1071,-0.1074,-0.1085,-0.1095,-0.1096,-0.12,-0.1201,0,0,0,-0.0938,-0.0938,-0.096,-0.0977,-0.0995,-0.0997,-0.1002,-0.1054,-0.1063,-0.1075,-0.1085,-0.1096,-0.1096,-0.1199,-0.12,-0.1307,0,0,0,-0.0935,-0.0934,-0.0958,-0.0955,-0.0995,-0.1031,-0.1009,-0.1059,-0.1065,-0.1085,-0.1096,-0.1097,-0.1198,-0.12,-0.1302,-0.133,0,0,0,-0.0925,-0.0932,-0.0946,-0.0954,-0.0991,-0.1031,-0.1042,-0.1061,-0.1071,-0.1095,-0.1097,-0.1198,-0.1199,-0.1298,-0.1323,-0.128,0,0,0,-0.0909,-0.093,-0.0946,-0.0967,-0.099,-0.1025,-0.1042,-0.1076,-0.1097,-0.1096,-0.1198,-0.12,-0.1297,-0.1319,-0.1277,-0.1034,0,0,0,-0.092,-0.0931,-0.0939,-0.0955,-0.0973,-0.1013,-0.107,-0.1112,-0.1128,-0.1177,-0.118,-0.1304,-0.1323,-0.1279,-0.1144,0,0,0,0,-0.0931,-0.0933,-0.0941,-0.0959,-0.0992,-0.1058,-0.1099,-0.1155,-0.1256,-0.1153,-0.1311,-0.1319,-0.1288,-0.114,-0.1209,-0.1209,-0.1209,-0.1208,-0.1208,-0.0917,-0.0926,-0.0937,-0.0962,-0.1007,-0.1095,-0.1168,-0.1257,-0.128,-0.1364,-0.1413,-0.1461,-0.1315,-0.1428,-0.1428,-0.1429,-0.1429,-0.143,-0.143,-0.089,-0.0884,-0.0934,-0.0972,-0.1059,-0.115,-0.1287,-0.1355,-0.1483,-0.1513,-0.1477,-0.1274,-0.1441,-0.1439,-0.1437,-0.1436,-0.1435,-0.1434,-0.1434,-0.0843,-0.0847,-0.0893,-0.0966,-0.1105,-0.1245,-0.1316,-0.1496,-0.1557,-0.1592,-0.1372,-0.1497,-0.1474,-0.1576,-0.1576,-0.1576,-0.1576,-0.1576,-0.1576,-0.0783,-0.0809,-0.0852,-0.0974,-0.1065,-0.121,-0.1397,-0.1405,-0.1519,-0.1444,-0.1619,-0.1508,-0.1503,-0.148,-0.1576,-0.1576,-0.1576,-0.1576,-0.1576,-0.0706,-0.0738,-0.0779,-0.0847,-0.0982,-0.1051,-0.1223,-0.124,-0.1218,-0.1175,-0.1316,-0.1329,-0.1241,-0.1241,-0.1205,-0.1223,-0.122,-0.1217,0,-0.0665,-0.0672,-0.0699,-0.0726,-0.0759,-0.0921,-0.0811,-0.0867,-0.1024,-0.102,-0.1184,-0.1343,-0.1351,-0.125,-0.1246,-0.1201,0,0,0,-0.0624,-0.064,-0.0625,-0.0636,-0.0663,-0.0684,-0.0783,-0.0786,-0.1014,-0.0949,-0.1146,-0.1164,-0.1311,-0.1575,-0.1469,-0.1463,-0.1417,0,0]},{"header":{"parameterUnit":"m.s-1","parameterCategory":2,"la1":30.2992,"la2":30.254,"lo1":-89.0895,"lo2":-89.0443,"dy":0.0025,"dx":0.0025,"nx":19,"ny":19,"refTime":"2026-03-25T03:00:00:Z","depth":"4","parameterNumber":3,"parameterNumberName":"V-component_of_CURRENTS"},"data":[0,0,0,0.0196,0.0197,0.0226,0.0226,0.0203,0.0202,0,0,0,0,0,0,0,0,0,0,0,0.0185,0.0185,0.0196,0.0197,0.0226,0.0226,0.0203,0.0202,0,0,0,0,0,0,0,0,0,0,0,0.0185,0.0185,0.0185,0.0197,0.0226,0.0226,0.0203,0.0196,0,0,0,0,0,0,0,0,0,0,0.0175,0.0172,0.0185,0.0185,0.0197,0.0226,0.0226,0.0196,0.0196,0.0172,0,0.0179,0,0.0189,0.0199,0.0199,0,0,0,0.0196,0.0172,0.0181,0.0185,0.0197,0.0226,0.0213,0.0197,0.0197,0.0172,0.0179,0.0178,0.0189,0.0199,0.0199,0.0097,0.0097,0,0,0.0194,0.0186,0.0182,0.0182,0.0206,0.0212,0.0213,0.0197,0.0195,0.0179,0.0178,0.0189,0.0199,0.0199,0.0098,0.0097,0,0,0,0.019,0.0185,0.0196,0.0182,0.0192,0.0213,0.0215,0.0196,0.02,0.0178,0.0188,0.0199,0.0198,0.0099,0.0098,0.0084,0,0,0,0.0189,0.0183,0.0196,0.0191,0.0193,0.0202,0.0213,0.0201,0.02,0.0188,0.0199,0.0198,0.01,0.0098,0.0086,0.0046,0,0,0,0.0183,0.0182,0.0187,0.019,0.0204,0.0203,0.0207,0.0202,0.0206,0.0199,0.0198,0.01,0.0099,0.0088,0.005,-0.0003,0,0,0,0.0172,0.0167,0.0187,0.0172,0.0204,0.0167,0.0207,0.0192,0.0183,0.0198,0.01,0.0098,0.0089,0.0053,-0.0,-0.0011,0,0,0,0.0157,0.0165,0.0153,0.017,0.012,0.0163,0.0101,0.0121,0.0143,0.0103,0.0101,0.0086,0.0051,-0.0002,-0.0123,0,0,0,0,0.014,0.0128,0.0116,0.0094,0.008,0.0044,0.0065,0.0072,0.0072,0.013,0.0051,0.0027,-0.0004,-0.0004,0.0089,0.0089,0.0089,0.0089,0.0089,0.01,0.0084,0.0034,0.0005,-0.0022,-0.0042,-0.0059,-0.0054,-0.0001,-0.0003,-0.0007,-0.0096,-0.0097,-0.0018,-0.0018,-0.0018,-0.0018,-0.0018,-0.0018,0.004,0.0004,-0.0037,-0.0078,-0.0122,-0.016,-0.0179,-0.0137,-0.0147,-0.008,-0.0109,-0.0049,-0.002,-0.002,-0.0019,-0.0019,-0.0019,-0.0019,-0.0019,0.0009,-0.0015,-0.0039,-0.0125,-0.0191,-0.0213,-0.0279,-0.0245,-0.0187,-0.0202,-0.0198,-0.0135,-0.0108,-0.0191,-0.0191,-0.0192,-0.0192,-0.0192,-0.0193,-0.0009,-0.0046,-0.0103,-0.0176,-0.0227,-0.0281,-0.0322,-0.0334,-0.0286,-0.0261,-0.0203,-0.0155,-0.015,-0.0121,-0.0199,-0.0198,-0.0197,-0.0196,-0.0196,-0.005,-0.0055,-0.0142,-0.0201,-0.0328,-0.0374,-0.0413,-0.0426,-0.0447,-0.043,-0.0305,-0.0298,-0.0306,-0.0298,-0.0273,-0.0399,-0.04,-0.04,0,-0.007,-0.0084,-0.0196,-0.0299,-0.0404,-0.0441,-0.0487,-0.0493,-0.0444,-0.0424,-0.0424,-0.0281,-0.0275,-0.0281,-0.0274,-0.0245,0,0,0,-0.0112,-0.013,-0.0212,-0.0306,-0.0433,-0.0472,-0.0494,-0.0492,-0.0446,-0.0477,-0.0412,-0.0409,-0.0308,-0.0218,-0.0215,-0.0208,-0.0162,0,0]}]]